Time,TemperatureF,DewpointF,PressureIn,WindDirection,WindDirectionDegrees,WindSpeedMPH,WindSpeedGustMPH,Humidity,HourlyPrecipIn,Conditions,Clouds,dailyrainin,SoftwareType,DateUTC
2013-08-20 00:00:00,65.7,62.0,29.66,SE,135,0.0,0.0,88,0.00,,,0.00,WUHU216HW,2013-08-20 04:00:00,
2013-08-20 00:01:00,65.7,62.0,29.66,SE,135,0.0,0.0,88,0.00,,,0.00,WUHU216HW,2013-08-20 04:01:00,
2013-08-20 00:06:00,65.7,62.0,29.66,SE,135,0.0,0.0,88,0.00,,,0.00,WUHU216HW,2013-08-20 04:06:00,
2013-08-20 00:30:00,65.2,61.6,29.67,SE,135,0.4,0.4,88,0.00,,,0.00,WUHU216HW,2013-08-20 04:30:00,
2013-08-20 00:35:00,65.2,61.6,29.67,SE,135,0.4,0.4,88,0.00,,,0.00,WUHU216HW,2013-08-20 04:35:00,
2013-08-20 01:00:00,64.3,60.7,29.66,SE,135,0.0,0.0,88,0.00,,,0.00,WUHU216HW,2013-08-20 05:00:00,
2013-08-20 01:05:00,64.3,60.7,29.66,SE,135,0.0,0.0,88,0.00,,,0.00,WUHU216HW,2013-08-20 05:05:00,
2013-08-20 01:30:00,64.4,61.2,29.66,SE,135,0.0,0.0,89,0.00,,,0.00,WUHU216HW,2013-08-20 05:30:00,
2013-08-20 01:35:00,64.4,61.2,29.66,SE,135,0.0,0.0,89,0.00,,,0.00,WUHU216HW,2013-08-20 05:35:00,
2013-08-20 02:00:00,63.9,60.7,29.66,SE,135,0.0,0.0,89,0.00,,,0.00,WUHU216HW,2013-08-20 06:00:00,
2013-08-20 02:05:00,63.9,60.7,29.66,SE,135,0.0,0.0,89,0.00,,,0.00,WUHU216HW,2013-08-20 06:05:00,
2013-08-20 02:30:00,63.2,59.9,29.66,SE,135,0.0,0.0,89,0.00,,,0.00,WUHU216HW,2013-08-20 06:30:00,
2013-08-20 02:35:00,63.2,59.9,29.66,SE,135,0.0,0.0,89,0.00,,,0.00,WUHU216HW,2013-08-20 06:35:00,
2013-08-20 03:00:00,63.0,59.8,29.66,SE,135,0.0,0.0,89,0.00,,,0.00,WUHU216HW,2013-08-20 07:00:00,
2013-08-20 03:05:00,63.0,59.8,29.66,SE,135,0.0,0.0,89,0.00,,,0.00,WUHU216HW,2013-08-20 07:05:00,
2013-08-20 03:30:00,62.3,59.0,29.66,SE,135,0.0,0.0,89,0.00,,,0.00,WUHU216HW,2013-08-20 07:30:00,
2013-08-20 03:35:00,62.3,59.0,29.66,SE,135,0.0,0.0,89,0.00,,,0.00,WUHU216HW,2013-08-20 07:35:00,
2013-08-20 04:00:00,61.9,58.7,29.66,SE,135,0.0,0.0,89,0.00,,,0.00,WUHU216HW,2013-08-20 08:00:00,
2013-08-20 04:05:00,61.9,58.7,29.66,SE,135,0.0,0.0,89,0.00,,,0.00,WUHU216HW,2013-08-20 08:05:00,
2013-08-20 04:30:00,61.7,58.9,29.66,SE,135,0.0,0.0,90,0.00,,,0.00,WUHU216HW,2013-08-20 08:30:00,
2013-08-20 04:35:00,61.7,58.9,29.66,SE,135,0.0,0.0,90,0.00,,,0.00,WUHU216HW,2013-08-20 08:35:00,
2013-08-20 05:00:00,61.4,58.5,29.66,SE,135,0.2,0.2,90,0.00,,,0.00,WUHU216HW,2013-08-20 09:00:00,
2013-08-20 05:05:00,61.4,58.5,29.66,SE,135,0.2,0.2,90,0.00,,,0.00,WUHU216HW,2013-08-20 09:05:00,
2013-08-20 05:30:00,61.2,58.3,29.67,SE,135,0.0,0.0,90,0.00,,,0.00,WUHU216HW,2013-08-20 09:30:00,
2013-08-20 05:35:00,61.2,58.3,29.67,SE,135,0.0,0.0,90,0.00,,,0.00,WUHU216HW,2013-08-20 09:35:00,
2013-08-20 06:00:00,61.0,58.1,29.68,SE,135,0.0,0.0,90,0.00,,,0.00,WUHU216HW,2013-08-20 10:00:00,
2013-08-20 06:05:00,61.0,58.1,29.68,SE,135,0.0,0.0,90,0.00,,,0.00,WUHU216HW,2013-08-20 10:05:00,
2013-08-20 06:30:00,60.5,57.6,29.69,SE,135,0.0,0.0,90,0.00,,,0.00,WUHU216HW,2013-08-20 10:30:00,
2013-08-20 06:35:00,60.5,57.6,29.69,SE,135,0.0,0.0,90,0.00,,,0.00,WUHU216HW,2013-08-20 10:35:00,
2013-08-20 07:00:00,60.8,58.0,29.70,SE,135,0.0,0.0,90,0.00,,,0.00,WUHU216HW,2013-08-20 11:00:00,
2013-08-20 07:05:00,60.8,58.0,29.70,SE,135,0.0,0.0,90,0.00,,,0.00,WUHU216HW,2013-08-20 11:05:00,
2013-08-20 07:30:00,61.2,58.6,29.71,SSE,158,0.0,0.0,91,0.00,,,0.00,WUHU216HW,2013-08-20 11:30:00,
2013-08-20 07:35:00,61.2,58.6,29.71,SSE,158,0.0,0.0,91,0.00,,,0.00,WUHU216HW,2013-08-20 11:35:00,
2013-08-20 08:00:00,62.6,60.0,29.72,SSE,158,0.0,0.0,91,0.00,,,0.00,WUHU216HW,2013-08-20 12:00:00,
2013-08-20 08:05:00,62.6,60.0,29.72,SSE,158,0.0,0.0,91,0.00,,,0.00,WUHU216HW,2013-08-20 12:05:00,
2013-08-20 08:30:00,64.8,62.2,29.73,SSE,158,0.4,0.4,91,0.00,,,0.00,WUHU216HW,2013-08-20 12:30:00,
2013-08-20 08:35:00,64.8,62.2,29.73,SSE,158,0.4,0.4,91,0.00,,,0.00,WUHU216HW,2013-08-20 12:35:00,
2013-08-20 09:00:00,67.0,64.2,29.73,SSE,158,0.7,0.7,91,0.00,,,0.00,WUHU216HW,2013-08-20 13:00:00,
2013-08-20 09:05:00,67.0,64.2,29.73,SSE,158,0.7,0.7,91,0.00,,,0.00,WUHU216HW,2013-08-20 13:05:00,
2013-08-20 09:30:00,69.5,66.4,29.73,SSW,203,0.4,0.4,90,0.00,,,0.00,WUHU216HW,2013-08-20 13:30:00,
2013-08-20 09:35:00,69.5,66.4,29.73,SSW,203,0.4,0.4,90,0.00,,,0.00,WUHU216HW,2013-08-20 13:35:00,
2013-08-20 10:00:00,71.8,68.0,29.73,ENE,68,1.1,1.1,88,0.00,,,0.00,WUHU216HW,2013-08-20 14:00:00,
2013-08-20 10:05:00,71.8,68.0,29.73,ENE,68,1.1,1.1,88,0.00,,,0.00,WUHU216HW,2013-08-20 14:05:00,
2013-08-20 10:30:00,74.0,68.9,29.74,NW,315,0.4,0.4,84,0.00,,,0.00,WUHU216HW,2013-08-20 14:30:00,
2013-08-20 10:35:00,74.0,68.9,29.74,NW,315,0.4,0.4,84,0.00,,,0.00,WUHU216HW,2013-08-20 14:35:00,
2013-08-20 11:00:00,75.6,69.1,29.74,NNW,338,0.4,0.4,80,0.00,,,0.00,WUHU216HW,2013-08-20 15:00:00,
2013-08-20 11:05:00,75.6,69.1,29.74,NNW,338,0.4,0.4,80,0.00,,,0.00,WUHU216HW,2013-08-20 15:05:00,
2013-08-20 11:30:00,77.6,69.8,29.74,West,270,1.3,1.3,77,0.00,,,0.00,WUHU216HW,2013-08-20 15:30:00,
2013-08-20 11:35:00,77.6,69.8,29.74,West,270,1.3,1.3,77,0.00,,,0.00,WUHU216HW,2013-08-20 15:35:00,
2013-08-20 12:00:00,78.8,69.4,29.73,East,90,0.9,0.9,73,0.00,,,0.00,WUHU216HW,2013-08-20 16:00:00,
2013-08-20 12:05:00,78.8,69.4,29.73,East,90,0.9,0.9,73,0.00,,,0.00,WUHU216HW,2013-08-20 16:05:00,
2013-08-20 12:30:00,81.0,69.9,29.73,WSW,248,0.7,0.7,69,0.00,,,0.00,WUHU216HW,2013-08-20 16:30:00,
2013-08-20 12:35:00,81.0,69.9,29.73,WSW,248,0.7,0.7,69,0.00,,,0.00,WUHU216HW,2013-08-20 16:35:00,
2013-08-20 13:00:00,81.0,69.5,29.73,NW,315,0.0,0.0,68,0.00,,,0.00,WUHU216HW,2013-08-20 17:00:00,
2013-08-20 13:05:00,81.0,69.5,29.73,NW,315,0.0,0.0,68,0.00,,,0.00,WUHU216HW,2013-08-20 17:05:00,
2013-08-20 13:30:00,81.9,69.0,29.73,WNW,293,2.5,2.5,65,0.00,,,0.00,WUHU216HW,2013-08-20 17:30:00,
2013-08-20 13:35:00,81.9,69.0,29.73,WNW,293,2.5,2.5,65,0.00,,,0.00,WUHU216HW,2013-08-20 17:35:00,
2013-08-20 14:00:00,83.0,67.1,29.72,WSW,248,0.9,0.9,59,0.00,,,0.00,WUHU216HW,2013-08-20 18:00:00,
2013-08-20 14:05:00,83.0,67.1,29.72,WSW,248,0.9,0.9,59,0.00,,,0.00,WUHU216HW,2013-08-20 18:05:00,
2013-08-20 14:30:00,85.9,68.9,29.71,WNW,293,2.2,2.2,57,0.00,,,0.00,WUHU216HW,2013-08-20 18:30:00,
2013-08-20 14:35:00,85.9,68.9,29.71,WNW,293,2.2,2.2,57,0.00,,,0.00,WUHU216HW,2013-08-20 18:35:00,
2013-08-20 15:00:00,87.5,68.8,29.70,NNW,338,1.8,1.8,54,0.00,,,0.00,WUHU216HW,2013-08-20 19:00:00,
2013-08-20 15:05:00,87.5,68.8,29.70,NNW,338,1.8,1.8,54,0.00,,,0.00,WUHU216HW,2013-08-20 19:05:00,
2013-08-20 15:30:00,85.9,67.8,29.69,WNW,293,0.9,0.9,55,0.00,,,0.00,WUHU216HW,2013-08-20 19:30:00,
2013-08-20 15:35:00,85.9,67.8,29.69,WNW,293,0.9,0.9,55,0.00,,,0.00,WUHU216HW,2013-08-20 19:35:00,
2013-08-20 16:00:00,86.6,67.4,29.69,WSW,248,1.8,1.8,53,0.00,,,0.00,WUHU216HW,2013-08-20 20:00:00,
2013-08-20 16:05:00,86.6,67.4,29.69,WSW,248,1.8,1.8,53,0.00,,,0.00,WUHU216HW,2013-08-20 20:05:00,
2013-08-20 16:30:00,86.9,67.8,29.68,NNE,23,1.6,1.6,53,0.00,,,0.00,WUHU216HW,2013-08-20 20:30:00,
2013-08-20 16:35:00,86.9,67.8,29.68,NNE,23,1.6,1.6,53,0.00,,,0.00,WUHU216HW,2013-08-20 20:35:00,
2013-08-20 17:00:00,86.4,67.8,29.67,WNW,293,2.5,2.5,54,0.00,,,0.00,WUHU216HW,2013-08-20 21:00:00,
2013-08-20 17:05:00,86.4,67.8,29.67,WNW,293,2.5,2.5,54,0.00,,,0.00,WUHU216HW,2013-08-20 21:05:00,
2013-08-20 17:30:00,85.3,67.3,29.67,SSW,203,0.7,0.7,55,0.00,,,0.00,WUHU216HW,2013-08-20 21:30:00,
2013-08-20 17:35:00,85.3,67.3,29.67,SSW,203,0.7,0.7,55,0.00,,,0.00,WUHU216HW,2013-08-20 21:35:00,
2013-08-20 18:00:00,84.6,67.7,29.67,NW,315,1.8,1.8,57,0.00,,,0.00,WUHU216HW,2013-08-20 22:00:00,
2013-08-20 18:05:00,84.6,67.7,29.67,NW,315,1.8,1.8,57,0.00,,,0.00,WUHU216HW,2013-08-20 22:05:00,
2013-08-20 18:30:00,85.1,68.7,29.67,ENE,68,1.8,1.8,58,0.00,,,0.00,WUHU216HW,2013-08-20 22:30:00,
2013-08-20 18:35:00,85.1,68.7,29.67,ENE,68,1.8,1.8,58,0.00,,,0.00,WUHU216HW,2013-08-20 22:35:00,
2013-08-20 19:00:00,82.4,66.6,29.67,NE,45,0.2,0.2,59,0.00,,,0.00,WUHU216HW,2013-08-20 23:00:00,
2013-08-20 19:05:00,82.4,66.6,29.67,NE,45,0.2,0.2,59,0.00,,,0.00,WUHU216HW,2013-08-20 23:05:00,
2013-08-20 19:30:00,82.1,67.7,29.68,NE,45,0.9,0.9,62,0.00,,,0.00,WUHU216HW,2013-08-20 23:30:00,
2013-08-20 19:35:00,82.1,67.7,29.68,NE,45,0.9,0.9,62,0.00,,,0.00,WUHU216HW,2013-08-20 23:35:00,
2013-08-20 20:00:00,78.1,65.8,29.68,NE,45,0.0,0.0,66,0.00,,,0.00,WUHU216HW,2013-08-21 00:00:00,
2013-08-20 20:05:00,78.1,65.8,29.68,NE,45,0.0,0.0,66,0.00,,,0.00,WUHU216HW,2013-08-21 00:05:00,
2013-08-20 20:30:00,74.9,64.4,29.69,NE,45,0.0,0.0,70,0.00,,,0.00,WUHU216HW,2013-08-21 00:30:00,
2013-08-20 20:35:00,74.9,64.4,29.69,NE,45,0.0,0.0,70,0.00,,,0.00,WUHU216HW,2013-08-21 00:35:00,
2013-08-20 21:00:00,72.7,63.6,29.70,NE,45,0.0,0.0,73,0.00,,,0.00,WUHU216HW,2013-08-21 01:00:00,
2013-08-20 21:05:00,72.7,63.6,29.70,NE,45,0.0,0.0,73,0.00,,,0.00,WUHU216HW,2013-08-21 01:05:00,
2013-08-20 21:30:00,71.1,62.4,29.71,NE,45,0.0,0.0,74,0.00,,,0.00,WUHU216HW,2013-08-21 01:30:00,
2013-08-20 21:35:00,71.1,62.4,29.71,NE,45,0.0,0.0,74,0.00,,,0.00,WUHU216HW,2013-08-21 01:35:00,
2013-08-20 22:00:00,70.2,62.2,29.71,NE,45,0.0,0.0,76,0.00,,,0.00,WUHU216HW,2013-08-21 02:00:00,
2013-08-20 22:05:00,70.2,62.2,29.71,NE,45,0.0,0.0,76,0.00,,,0.00,WUHU216HW,2013-08-21 02:05:00,
2013-08-20 22:30:00,69.3,62.5,29.71,NE,45,0.0,0.0,79,0.00,,,0.00,WUHU216HW,2013-08-21 02:30:00,
2013-08-20 22:35:00,69.3,62.5,29.71,NE,45,0.0,0.0,79,0.00,,,0.00,WUHU216HW,2013-08-21 02:35:00,
2013-08-20 23:00:00,69.1,62.7,29.72,NE,45,0.0,0.0,80,0.00,,,0.00,WUHU216HW,2013-08-21 03:00:00,
2013-08-20 23:05:00,69.1,62.7,29.72,NE,45,0.0,0.0,80,0.00,,,0.00,WUHU216HW,2013-08-21 03:05:00,
2013-08-20 23:30:00,69.1,63.1,29.72,NE,45,0.2,0.2,81,0.00,,,0.00,WUHU216HW,2013-08-21 03:30:00,
2013-08-20 23:35:00,69.1,63.1,29.72,NE,45,0.2,0.2,81,0.00,,,0.00,WUHU216HW,2013-08-21 03:35:00,